period_start,C,m1,H,J0,J1,J2,J3,J4,J5,JA,JB,JC,JD,JJ,JK,JN,#
2018-05-09 00:03:43,0.02,2.38,0.00,25.38,28.84,31.63,13.84,47.32,1018.49,2017.99,2620.99,2470.99,2791.37,600.10,592.60,34.95,0000 0000 0000 0000 000000
2018-05-09 00:08:45,0.04,2.38,0.00,25.40,28.85,31.65,13.83,47.34,1018.54,2017.97,2620.21,2470.58,2790.98,599.77,592.09,35.00,0000 0000 0000 0000 000000
2018-05-09 00:13:47,0.03,2.38,0.00,25.48,28.87,31.65,13.86,47.39,1018.54,2017.96,2619.93,2470.03,2790.32,600.02,592.13,35.06,0000 0000 0000 0000 000000
2018-05-09 00:18:48,0.02,2.38,0.00,25.47,28.87,31.65,13.86,47.31,1018.57,2017.98,2619.14,2469.97,2789.97,599.76,591.98,35.11,0000 0000 0000 0000 000000
2018-05-09 00:23:49,0.05,2.38,0.00,25.47,28.90,31.67,13.83,47.31,1018.57,2017.93,2618.79,2469.36,2789.37,600.09,592.35,35.16,0000 0000 0000 0000 000000
2018-05-09 00:28:50,-0.00,2.39,0.00,25.51,28.91,31.68,13.82,47.30,1018.57,2017.65,2618.05,2469.00,2789.00,600.02,592.19,35.21,0000 0000 0000 0000 000000
2018-05-09 00:33:51,0.00,2.38,0.00,25.59,28.92,31.70,13.81,47.30,1018.57,2017.37,2617.66,2468.83,2788.54,600.01,591.85,35.26,0000 0000 0000 0000 000000
2018-05-09 00:38:52,0.04,2.39,0.00,25.57,28.94,31.72,13.82,47.26,1018.57,2017.31,2617.02,2468.16,2788.02,599.97,592.02,35.31,0000 0000 0000 0000 000000
2018-05-09 00:43:53,0.01,2.39,0.00,25.58,28.96,31.76,13.84,47.30,1018.57,2017.19,2616.62,2468.00,2787.66,600.05,592.10,35.36,0000 0000 0000 0000 000000
2018-05-09 00:48:55,0.03,2.39,0.00,25.63,28.97,31.77,13.86,47.37,1018.58,2017.06,2616.00,2467.56,2787.02,600.12,592.13,35.41,0000 0000 0000 0000 000000
2018-05-09 00:53:56,0.04,2.39,0.00,25.70,29.00,31.81,13.95,47.28,1018.58,2017.01,2615.32,2467.02,2786.58,600.39,592.17,35.46,0000 0000 0000 0000 000000
2018-05-09 00:58:57,0.02,2.39,0.00,25.69,29.01,31.82,13.78,47.29,1018.58,2017.00,2614.83,2466.87,2786.01,599.76,591.48,35.51,0000 0000 0000 0000 000000
2018-05-09 01:03:59,0.05,2.40,0.00,25.71,29.03,31.84,13.79,47.24,1018.58,2017.00,2614.08,2466.14,2785.66,599.90,591.68,35.56,0000 0000 0000 0000 000000
2018-05-09 01:09:00,0.01,2.40,0.00,25.76,29.05,31.83,13.81,47.33,1018.58,2017.00,2613.80,2466.00,2785.03,600.06,591.65,35.61,0000 0000 0000 0000 000000
2018-05-09 01:14:01,0.04,2.40,0.00,25.70,29.07,31.87,13.80,47.28,1018.58,2016.99,2613.06,2465.71,2784.76,599.67,591.54,35.66,0000 0000 0000 0000 000000
2018-05-09 01:19:02,0.04,2.40,0.00,25.64,29.08,31.88,13.88,47.32,1018.57,2016.97,2612.57,2465.05,2784.06,599.69,591.65,35.71,0000 0000 0000 0000 000000
2018-05-09 01:24:03,0.01,2.40,0.00,25.68,29.10,31.91,13.86,47.28,1018.58,2016.99,2612.01,2464.97,2783.90,600.18,592.02,35.76,0000 0000 0000 0000 000000
2018-05-09 01:29:05,0.04,2.40,0.00,25.68,29.11,31.91,13.78,47.28,1018.58,2016.97,2611.56,2464.65,2783.16,599.93,591.77,35.81,0000 0000 0000 0000 000000
2018-05-09 01:34:06,0.05,2.40,0.00,25.64,29.12,31.95,13.86,47.27,1018.58,2016.93,2610.65,2464.02,2782.54,600.20,592.10,35.86,0000 0000 0000 0000 000000
2018-05-09 01:39:07,0.03,2.41,0.00,25.65,29.13,31.93,13.81,47.17,1018.59,2016.96,2610.02,2463.79,2782.02,599.97,591.89,35.91,0000 0000 0000 0000 000000
2018-05-09 01:44:09,0.03,2.41,0.00,25.71,29.15,31.94,13.86,47.21,1018.63,2016.94,2609.73,2463.12,2781.97,600.29,592.11,35.96,0000 0000 0000 0000 000000
2018-05-09 01:49:10,0.03,2.41,0.00,25.60,29.15,31.98,13.81,47.23,1018.77,2016.89,2609.07,2463.00,2781.26,599.79,591.96,36.02,0000 0000 0000 0000 000000
2018-05-09 01:54:12,0.01,2.41,0.00,25.57,29.15,32.01,13.84,47.26,1018.92,2016.89,2608.90,2462.92,2781.00,600.07,592.40,36.07,0000 0000 0000 0000 000000
2018-05-09 01:59:14,0.05,2.41,0.00,25.58,29.15,32.01,13.85,47.18,1018.99,2016.89,2608.10,2462.25,2780.94,600.13,592.39,36.12,0000 0000 0000 0000 000000
2018-05-09 02:04:15,0.02,2.41,0.00,25.53,29.15,32.03,13.87,47.17,1019.04,2016.91,2607.97,2462.01,2780.28,600.14,592.66,36.17,0000 0000 0000 0000 000000
2018-05-09 02:09:16,0.01,2.42,0.00,25.50,29.13,32.07,13.88,47.27,1019.04,2016.89,2607.52,2462.00,2780.00,600.01,592.47,36.22,0000 0000 0000 0000 000000
2018-05-09 02:14:18,0.01,2.42,0.00,25.55,29.12,32.12,13.88,47.24,1019.02,2016.95,2607.02,2461.96,2779.96,600.12,592.46,36.27,0000 0000 0000 0000 000000
2018-05-09 02:19:20,0.04,2.42,0.00,25.51,29.10,32.11,13.82,47.27,1019.05,2016.96,2606.80,2461.45,2779.45,599.96,592.33,36.32,0000 0000 0000 0000 000000
2018-05-09 02:24:21,0.03,2.42,0.00,25.51,29.09,32.07,13.92,47.36,1019.06,2016.98,2606.10,2461.05,2779.03,600.13,592.55,36.37,0000 0000 0000 0000 000000
2018-05-09 02:29:23,0.00,2.42,0.00,25.53,29.07,32.01,13.82,47.32,1019.06,2016.99,2605.97,2461.00,2778.99,599.63,592.05,36.42,0000 0000 0000 0000 000000
2018-05-09 02:34:24,0.02,2.42,0.00,25.49,29.05,31.96,13.83,47.36,1019.06,2016.99,2605.53,2460.99,2778.84,599.77,592.28,36.47,0000 0000 0000 0000 000000
2018-05-09 02:39:26,0.02,2.42,0.00,25.54,29.03,31.88,13.84,47.42,1019.06,2016.99,2605.03,2460.84,2778.19,599.96,592.29,36.52,0000 0000 0000 0000 000000
2018-05-09 02:44:27,0.03,2.42,0.00,25.51,29.01,31.88,13.89,47.54,1019.06,2016.99,2604.73,2460.28,2778.00,600.12,592.59,36.57,0000 0000 0000 0000 000000
2018-05-09 02:49:28,0.01,2.43,0.00,25.43,28.97,31.82,13.84,47.50,1019.06,2016.99,2604.04,2460.02,2777.95,599.95,592.56,36.62,0000 0000 0000 0000 000000
2018-05-09 02:54:29,0.01,2.43,0.00,25.40,28.94,31.77,13.85,47.38,1019.07,2017.00,2603.99,2460.00,2777.74,599.91,592.58,36.67,0000 0000 0000 0000 000000
2018-05-09 02:59:30,0.03,2.43,0.00,25.34,28.90,31.72,13.87,47.43,1019.08,2017.05,2603.52,2460.00,2777.22,600.46,593.19,36.72,0000 0000 0000 0000 000000
2018-05-09 03:04:32,0.03,2.43,0.00,25.33,28.87,31.67,13.89,47.48,1019.09,2017.30,2603.04,2460.00,2777.02,600.25,593.14,36.77,0000 0000 0000 0000 000000
2018-05-09 03:09:33,0.06,2.43,0.00,25.35,28.83,31.62,13.90,47.45,1019.13,2017.91,2603.00,2459.99,2777.00,600.05,592.86,36.82,0000 0000 0000 0000 000000
2018-05-09 03:14:34,0.00,2.43,0.00,25.32,28.80,31.58,13.90,47.44,1019.19,2017.98,2602.92,2459.99,2777.00,600.50,593.40,36.87,0000 0000 0000 0000 000000
2018-05-09 03:19:35,0.02,2.43,0.00,25.33,28.76,31.56,13.84,47.34,1019.32,2017.99,2602.41,2459.96,2776.99,599.89,592.80,36.93,0000 0000 0000 0000 000000
2018-05-09 03:24:36,0.00,2.43,0.00,25.38,28.74,31.54,13.85,47.44,1019.48,2017.99,2602.02,2459.88,2776.96,599.77,592.67,36.98,0000 0000 0000 0000 000000
2018-05-09 03:29:37,0.02,2.44,0.00,25.35,28.71,31.52,13.84,47.42,1019.53,2018.02,2601.96,2459.51,2776.66,600.16,593.27,37.03,0000 0000 0000 0000 000000
2018-05-09 03:34:38,0.03,2.44,0.00,25.38,28.67,31.50,13.96,47.46,1019.55,2018.05,2601.71,2459.10,2776.14,600.28,593.25,37.08,0000 0000 0000 0000 000000
2018-05-09 03:39:40,0.07,2.44,0.00,25.41,28.65,31.46,13.84,47.46,1019.55,2018.47,2601.14,2459.05,2776.03,599.93,592.90,37.13,0000 0000 0000 0000 000000
2018-05-09 03:44:41,0.01,2.44,0.00,25.41,28.62,31.37,13.80,47.24,1019.55,2018.76,2601.00,2459.01,2776.00,600.31,593.21,37.18,0000 0000 0000 0000 000000
2018-05-09 03:49:43,0.01,2.44,0.00,25.45,28.60,31.28,13.89,47.48,1019.55,2018.94,2600.95,2459.00,2775.99,599.89,592.70,37.23,0000 0000 0000 0000 000000
2018-05-09 03:54:44,0.02,2.44,0.00,25.51,28.58,31.24,13.83,47.45,1019.55,2018.98,2600.33,2459.00,2775.91,599.59,592.29,37.28,0000 0000 0000 0000 000000
2018-05-09 03:59:45,0.01,2.45,0.00,25.51,28.56,31.20,13.85,47.38,1019.55,2018.99,2600.02,2458.94,2775.53,599.91,592.64,37.33,0000 0000 0000 0000 000000
2018-05-09 04:04:46,0.01,2.45,0.00,25.52,28.55,31.21,13.84,47.33,1019.55,2018.99,2599.99,2458.68,2775.09,600.52,593.15,37.38,0000 0000 0000 0000 000000
2018-05-09 04:09:48,0.02,2.45,0.00,25.57,28.53,31.19,13.85,47.33,1019.55,2018.99,2599.74,2458.22,2775.00,600.31,592.88,37.43,0000 0000 0000 0000 000000
2018-05-09 04:14:49,0.02,2.45,0.00,25.56,28.52,31.18,13.83,47.34,1019.57,2018.99,2599.17,2458.04,2775.00,599.75,592.37,37.48,0000 0000 0000 0000 000000
2018-05-09 04:19:50,0.00,2.45,0.00,25.59,28.51,31.19,13.80,47.33,1019.63,2019.00,2599.00,2458.01,2774.93,599.92,592.53,37.53,0000 0000 0000 0000 000000
2018-05-09 04:24:52,0.03,2.45,0.00,25.63,28.50,31.18,13.78,47.23,1019.62,2019.01,2598.57,2458.00,2774.25,600.04,592.55,37.58,0000 0000 0000 0000 000000
2018-05-09 04:29:53,0.02,2.45,0.00,25.64,28.50,31.21,13.83,47.30,1019.61,2019.01,2598.03,2457.76,2774.01,600.21,592.70,37.63,0000 0000 0000 0000 000000
2018-05-09 04:34:54,0.02,2.45,0.00,25.68,28.50,31.20,13.89,47.31,1019.67,2019.01,2597.89,2457.17,2773.91,600.18,592.72,37.68,0000 0000 0000 0000 000000
2018-05-09 04:39:55,0.03,2.45,0.00,25.73,28.49,31.19,13.84,47.25,1019.72,2019.02,2597.23,2457.01,2773.40,599.98,592.32,37.73,0000 0000 0000 0000 000000
2018-05-09 04:44:57,0.01,2.46,0.00,25.71,28.49,31.19,13.72,47.36,1019.78,2019.03,2597.00,2457.00,2773.03,599.73,592.37,37.78,0000 0000 0000 0000 000000
2018-05-09 04:49:58,0.01,2.46,0.00,25.75,28.49,31.20,13.80,47.22,1019.81,2019.06,2596.86,2456.94,2773.00,600.09,592.50,37.83,0000 0000 0000 0000 000000
2018-05-09 04:55:00,0.04,2.46,0.00,25.80,28.50,31.20,13.86,47.35,1019.95,2019.09,2596.26,2456.69,2772.91,600.19,592.60,37.88,0000 0000 0000 0000 000000
2018-05-09 05:00:01,0.03,2.46,0.00,25.82,28.50,31.22,13.81,47.25,1019.95,2019.06,2595.99,2456.07,2772.16,599.92,592.26,37.93,0000 0000 0000 0000 000000
2018-05-09 05:05:02,0.02,2.46,0.00,25.84,28.50,31.22,13.79,47.19,1020.02,2019.07,2595.64,2456.00,2772.00,600.25,592.63,37.99,0000 0000 0000 0000 000000
2018-05-09 05:10:03,0.01,2.46,0.00,25.88,28.50,31.23,13.80,47.38,1020.03,2019.07,2595.02,2455.98,2771.94,599.80,592.13,38.04,0000 0000 0000 0000 000000
2018-05-09 05:15:05,0.04,2.46,0.00,25.89,28.52,31.24,13.82,47.25,1020.03,2019.04,2594.94,2455.41,2771.21,600.23,592.36,38.09,0000 0000 0000 0000 000000
2018-05-09 05:20:06,0.02,2.46,0.00,25.87,28.52,31.26,13.81,47.26,1020.04,2019.02,2594.15,2455.01,2770.99,600.35,592.60,38.14,0000 0000 0000 0000 000000
2018-05-09 05:25:08,0.01,2.47,0.00,25.92,28.52,31.28,13.72,47.37,1020.04,2019.01,2593.94,2454.98,2770.54,599.45,591.72,38.19,0000 0000 0000 0000 000000
2018-05-09 05:30:09,0.04,2.47,0.00,25.95,28.55,31.28,13.82,47.29,1020.04,2019.01,2593.37,2454.71,2770.05,600.02,592.16,38.24,0000 0000 0000 0000 000000
2018-05-09 05:35:11,0.02,2.47,0.00,25.96,28.55,31.28,13.74,47.27,1020.04,2019.00,2592.99,2454.05,2769.97,599.92,591.94,38.29,0000 0000 0000 0000 000000
2018-05-09 05:40:12,0.02,2.47,0.00,25.99,28.57,31.32,13.86,47.23,1020.04,2019.00,2592.71,2454.00,2769.60,600.11,592.23,38.34,0000 0000 0000 0000 000000
2018-05-09 05:45:14,0.02,2.47,0.00,26.04,28.57,31.33,13.79,47.16,1020.05,2019.01,2592.08,2453.97,2769.06,600.19,592.14,38.39,0000 0000 0000 0000 000000
2018-05-09 05:50:15,0.03,2.47,0.00,26.02,28.60,31.34,13.84,47.33,1020.05,2019.00,2591.89,2453.34,2768.98,600.05,592.01,38.44,0000 0000 0000 0000 000000
2018-05-09 05:55:17,0.04,2.47,0.00,26.05,28.61,31.37,13.83,47.37,1020.07,2019.00,2591.12,2453.01,2768.39,599.64,591.64,38.49,0000 0000 0000 0000 000000
2018-05-09 06:00:18,0.01,2.48,0.00,26.11,28.62,31.37,13.80,47.33,1020.07,2019.00,2590.87,2452.95,2768.00,599.99,591.83,38.54,0000 0000 0000 0000 000000
2018-05-09 06:05:19,0.04,2.48,0.00,26.13,28.65,31.39,13.88,47.29,1020.10,2019.00,2590.16,2452.24,2767.85,600.09,591.95,38.59,0000 0000 0000 0000 000000
2018-05-09 06:10:20,0.02,2.48,0.00,26.14,28.67,31.41,13.84,47.29,1020.12,2018.99,2589.94,2452.01,2767.14,600.30,592.05,38.64,0000 0000 0000 0000 000000
2018-05-09 06:15:22,0.02,2.48,0.00,26.19,28.68,31.42,13.74,47.27,1020.18,2018.96,2589.21,2451.90,2766.93,599.80,591.80,38.69,0000 0000 0000 0000 000000
2018-05-09 06:20:23,0.05,2.48,0.00,26.22,28.70,31.44,13.78,47.33,1020.24,2018.95,2588.95,2451.17,2766.18,600.00,591.63,38.74,0000 0000 0000 0000 000000
2018-05-09 06:25:24,-0.01,2.48,0.00,26.22,28.72,31.46,13.81,47.23,1020.36,2018.76,2588.24,2451.00,2765.98,599.80,591.61,38.80,0000 0000 0000 0000 000000
2018-05-09 06:30:26,0.02,2.48,0.00,26.27,28.75,31.49,13.86,47.32,1020.39,2018.57,2587.95,2450.72,2765.40,600.06,591.82,38.85,0000 0000 0000 0000 000000
2018-05-09 06:35:27,0.01,2.48,0.00,26.33,28.76,31.51,13.73,47.34,1020.50,2018.18,2587.25,2450.05,2765.00,599.86,591.74,38.90,0000 0000 0000 0000 000000
2018-05-09 06:40:28,0.01,2.48,0.00,26.33,28.79,31.52,13.74,47.25,1020.51,2018.10,2586.96,2450.00,2764.74,600.03,591.69,38.95,0000 0000 0000 0000 000000
2018-05-09 06:45:29,0.05,2.49,0.00,26.33,28.81,31.56,13.73,47.22,1020.52,2018.04,2586.19,2449.56,2764.03,599.65,591.45,39.00,0000 0000 0000 0000 000000
2018-05-09 06:50:30,0.01,2.49,0.00,26.39,28.83,31.57,13.71,47.26,1020.52,2018.02,2585.96,2449.04,2763.93,599.53,591.11,39.05,0000 0000 0000 0000 000000
2018-05-09 06:55:32,0.03,2.49,0.00,26.42,28.85,31.59,13.72,47.24,1020.52,2018.00,2585.25,2448.98,2763.14,599.76,591.38,39.10,0000 0000 0000 0000 000000
2018-05-09 07:00:33,0.03,2.49,0.00,26.41,28.87,31.61,13.76,47.33,1020.52,2018.00,2584.98,2448.38,2762.97,600.09,591.56,39.15,0000 0000 0000 0000 000000
2018-05-09 07:05:34,0.04,2.49,0.00,26.46,28.90,31.65,13.79,47.28,1020.53,2018.00,2584.31,2448.02,2762.35,600.04,591.64,39.20,0000 0000 0000 0000 000000
2018-05-09 07:10:35,0.01,2.49,0.00,26.51,28.92,31.66,13.75,47.33,1020.53,2017.99,2583.96,2447.84,2762.00,599.89,591.16,39.25,0000 0000 0000 0000 000000
2018-05-09 07:15:37,0.06,2.50,0.00,26.52,28.94,31.69,13.76,47.33,1020.55,2017.97,2583.25,2447.11,2761.46,600.08,591.33,39.30,0000 0000 0000 0000 000000
2018-05-09 07:20:38,0.00,2.50,0.00,26.53,28.96,31.71,13.81,47.23,1020.62,2017.90,2582.91,2446.99,2761.00,600.30,591.67,39.35,0000 0000 0000 0000 000000
2018-05-09 07:25:39,0.02,2.50,0.00,26.60,28.99,31.73,13.67,47.27,1020.73,2017.72,2582.14,2446.60,2760.69,599.93,591.21,39.40,0000 0000 0000 0000 000000
2018-05-09 07:30:40,-0.01,2.50,0.00,26.64,29.01,31.76,13.78,47.23,1020.79,2017.39,2581.89,2446.02,2760.03,600.00,591.07,39.45,0000 0000 0000 0000 000000
2018-05-09 07:35:41,0.01,2.50,0.00,26.64,29.03,31.79,13.79,47.39,1020.95,2017.15,2581.08,2445.97,2759.78,600.05,591.49,39.50,0000 0000 0000 0000 000000
2018-05-09 07:40:42,0.05,2.50,0.00,26.66,29.06,31.81,13.79,47.19,1021.01,2017.06,2580.68,2445.33,2759.11,600.78,591.91,39.55,0000 0000 0000 0000 000000
2018-05-09 07:45:43,0.01,2.50,0.00,26.72,29.08,31.84,13.84,47.32,1021.01,2017.00,2580.02,2444.99,2758.77,600.42,591.64,39.60,0000 0000 0000 0000 000000
2018-05-09 07:50:45,0.05,2.50,0.00,26.75,29.11,31.86,13.73,47.28,1021.01,2017.00,2579.57,2444.56,2758.06,599.78,590.95,39.65,0000 0000 0000 0000 000000
2018-05-09 07:55:46,0.02,2.51,0.00,26.75,29.13,31.89,13.78,47.36,1021.01,2017.00,2578.99,2444.03,2757.77,599.98,591.10,39.70,0000 0000 0000 0000 000000
2018-05-09 08:00:47,0.03,2.51,0.00,26.78,29.16,31.92,13.75,47.18,1021.02,2016.99,2578.37,2443.93,2757.07,600.14,591.23,39.75,0000 0000 0000 0000 000000
2018-05-09 08:05:48,0.03,2.51,0.00,26.84,29.18,31.93,13.70,47.27,1021.04,2016.97,2578.00,2443.20,2756.94,600.10,591.07,39.81,0000 0000 0000 0000 000000
2018-05-09 08:10:49,0.03,2.51,0.00,26.84,29.21,31.96,13.79,47.30,1021.07,2016.92,2577.44,2443.00,2756.27,600.03,591.06,39.86,0000 0000 0000 0000 000000
2018-05-09 08:15:51,-0.01,2.51,0.00,26.85,29.23,31.98,13.78,47.29,1021.14,2016.75,2577.00,2442.81,2755.99,600.57,591.51,39.91,0000 0000 0000 0000 000000
2018-05-09 08:20:52,0.02,2.51,0.00,26.86,29.26,32.01,13.77,47.21,1021.33,2016.28,2576.27,2442.07,2755.35,600.26,591.23,39.96,0000 0000 0000 0000 000000
2018-05-09 08:25:53,-0.01,2.51,0.00,26.91,29.28,32.04,13.80,47.25,1021.40,2016.10,2575.98,2441.97,2755.00,600.36,591.38,40.01,0000 0000 0000 0000 000000
2018-05-09 08:30:54,0.05,2.51,0.00,26.94,29.30,32.04,13.78,47.20,1021.46,2016.03,2575.23,2441.40,2754.59,600.32,591.24,40.06,0000 0000 0000 0000 000000
2018-05-09 08:35:56,0.01,2.52,0.00,26.91,29.32,32.08,13.74,47.23,1021.49,2016.00,2574.92,2441.01,2754.01,599.79,591.02,40.11,0000 0000 0000 0000 000000
2018-05-09 08:40:57,0.04,2.52,0.00,26.90,29.35,32.11,13.64,47.07,1021.50,2016.00,2574.11,2440.79,2753.61,599.69,590.69,40.16,0000 0000 0000 0000 000000
2018-05-09 08:45:58,0.04,2.52,0.00,26.94,29.37,32.14,13.75,47.20,1021.50,2016.00,2573.72,2440.06,2753.01,600.04,591.00,40.21,0000 0000 0000 0000 000000
2018-05-09 08:51:00,0.02,2.52,0.00,26.94,29.40,32.15,13.80,47.21,1021.50,2016.00,2573.04,2439.98,2752.73,600.25,591.28,40.26,0000 0000 0000 0000 000000
2018-05-09 08:56:01,0.05,2.52,0.00,26.91,29.41,32.18,13.66,47.13,1021.50,2016.00,2572.59,2439.51,2752.04,599.85,591.18,40.31,0000 0000 0000 0000 000000
2018-05-09 09:01:02,0.01,2.53,0.00,26.92,29.43,32.19,13.69,47.10,1021.50,2015.98,2572.01,2439.01,2751.94,600.27,591.32,40.36,0000 0000 0000 0000 000000
2018-05-09 09:06:03,0.03,2.53,0.00,26.95,29.45,32.22,13.78,47.15,1021.52,2015.93,2571.56,2438.94,2751.26,600.31,591.42,40.41,0000 0000 0000 0000 000000
2018-05-09 09:11:04,0.02,2.53,0.00,26.93,29.47,32.24,13.84,47.32,1021.52,2015.78,2571.01,2438.24,2751.00,600.43,591.40,40.46,0000 0000 0000 0000 000000
2018-05-09 09:16:06,-0.02,2.53,0.00,26.91,29.49,32.25,13.77,47.22,1021.51,2015.42,2570.54,2438.01,2750.66,600.14,591.32,40.51,0000 0000 0000 0000 000000
2018-05-09 09:21:07,-0.00,2.53,0.00,26.92,29.50,32.29,13.83,47.37,1021.52,2015.08,2570.00,2437.87,2750.04,600.30,591.23,40.56,0000 0000 0000 0000 000000
2018-05-09 09:26:08,0.05,2.53,0.00,26.98,29.52,32.29,13.71,47.23,1021.51,2015.03,2569.42,2437.12,2749.86,600.15,591.10,40.61,0000 0000 0000 0000 000000
2018-05-09 09:31:09,0.01,2.53,0.00,26.96,29.54,32.30,13.79,47.17,1021.54,2015.01,2568.99,2436.99,2749.11,600.16,591.20,40.66,0000 0000 0000 0000 000000
2018-05-09 09:36:10,0.03,2.53,0.00,26.94,29.55,32.32,13.75,47.23,1021.56,2015.00,2568.47,2436.66,2748.97,600.05,591.08,40.71,0000 0000 0000 0000 000000
2018-05-09 09:41:12,0.04,2.53,0.00,26.95,29.57,32.36,13.81,47.27,1021.56,2015.00,2567.99,2436.06,2748.28,600.24,591.25,40.77,0000 0000 0000 0000 000000
2018-05-09 09:46:13,0.02,2.54,0.00,27.00,29.58,32.36,13.81,47.15,1021.59,2014.98,2567.21,2435.98,2747.99,600.13,591.10,40.82,0000 0000 0000 0000 000000
2018-05-09 09:51:14,0.04,2.54,0.00,26.99,29.60,32.37,13.85,47.28,1021.60,2014.97,2566.99,2435.52,2747.61,600.22,591.22,40.87,0000 0000 0000 0000 000000
2018-05-09 09:56:15,0.03,2.54,0.00,26.98,29.61,32.38,13.78,47.21,1021.74,2014.97,2566.61,2435.03,2747.03,599.94,591.14,40.92,0000 0000 0000 0000 000000
2018-05-09 10:01:17,0.01,2.54,0.00,26.99,29.62,32.39,13.69,47.13,1021.84,2014.96,2566.03,2435.00,2746.97,599.83,590.89,40.97,0000 0000 0000 0000 000000
2018-05-09 10:06:18,0.03,2.54,0.00,27.04,29.65,32.41,13.76,47.13,1021.91,2014.81,2565.70,2434.63,2746.31,600.04,591.11,41.02,0000 0000 0000 0000 000000
2018-05-09 10:11:19,-0.01,2.54,0.00,27.03,29.66,32.42,13.73,47.32,1021.98,2014.52,2565.03,2434.03,2745.99,599.95,591.13,41.07,0000 0000 0000 0000 000000
2018-05-09 10:16:20,0.00,2.54,0.00,26.99,29.67,32.44,13.79,47.19,1021.98,2014.26,2564.78,2433.99,2745.70,600.00,591.15,41.12,0000 0000 0000 0000 000000
2018-05-09 10:21:21,0.03,2.54,0.00,27.00,29.69,32.46,13.75,47.08,1021.99,2014.13,2564.07,2433.63,2745.06,599.73,590.88,41.17,0000 0000 0000 0000 000000
2018-05-09 10:26:23,0.01,2.54,0.00,27.04,29.71,32.47,13.72,47.16,1021.99,2014.05,2563.81,2433.03,2744.96,600.28,591.39,41.22,0000 0000 0000 0000 000000
2018-05-09 10:31:24,0.02,2.55,0.00,27.00,29.72,32.49,13.77,47.28,1021.99,2014.02,2563.08,2432.99,2744.28,599.82,591.02,41.27,0000 0000 0000 0000 000000
2018-05-09 10:36:25,0.03,2.55,0.00,26.96,29.75,32.51,13.80,47.21,1021.99,2014.00,2562.87,2432.48,2743.99,600.05,591.27,41.32,0000 0000 0000 0000 000000
2018-05-09 10:41:26,0.03,2.55,0.00,26.97,29.76,32.53,13.73,47.17,1021.99,2014.00,2562.14,2432.02,2743.75,599.70,590.97,41.37,0000 0000 0000 0000 000000
2018-05-09 10:46:28,0.01,2.55,0.00,27.00,29.77,32.56,13.79,47.19,1021.99,2014.00,2561.97,2431.99,2743.08,599.85,591.15,41.42,0000 0000 0000 0000 000000
2018-05-09 10:51:29,0.04,2.55,0.00,26.97,29.78,32.58,13.77,47.21,1021.99,2014.00,2561.26,2431.69,2742.95,599.79,591.02,41.47,0000 0000 0000 0000 000000
2018-05-09 10:56:30,0.03,2.55,0.00,26.92,29.80,32.60,13.84,47.33,1022.01,2014.00,2560.96,2431.05,2742.25,600.27,591.63,41.52,0000 0000 0000 0000 000000
2018-05-09 11:01:32,0.02,2.55,0.00,26.92,29.81,32.63,13.80,47.20,1022.03,2013.99,2560.21,2430.99,2741.99,599.94,591.33,41.57,0000 0000 0000 0000 000000
2018-05-09 11:06:33,0.03,2.55,0.00,26.92,29.82,32.63,13.81,47.16,1022.15,2013.98,2559.94,2430.70,2741.57,599.93,591.38,41.62,0000 0000 0000 0000 000000
2018-05-09 11:11:34,0.04,2.56,0.00,26.87,29.83,32.65,13.80,47.19,1022.27,2013.97,2559.15,2430.04,2741.01,600.26,591.83,41.68,0000 0000 0000 0000 000000
2018-05-09 11:16:36,0.01,2.56,0.00,26.85,29.85,32.65,13.75,47.24,1022.34,2013.93,2558.96,2429.97,2740.74,599.97,591.76,41.73,0000 0000 0000 0000 000000
2018-05-09 11:21:37,0.05,2.56,0.00,26.86,29.85,32.66,13.80,47.23,1022.36,2013.88,2558.22,2429.37,2740.05,599.92,591.64,41.78,0000 0000 0000 0000 000000
2018-05-09 11:26:38,0.01,2.56,0.00,26.84,29.85,32.65,13.72,47.24,1022.41,2013.89,2557.93,2429.00,2739.96,599.76,591.61,41.83,0000 0000 0000 0000 000000
2018-05-09 11:31:40,0.04,2.56,0.00,26.80,29.85,32.65,13.72,47.27,1022.43,2013.95,2557.12,2428.99,2739.32,599.97,591.91,41.88,0000 0000 0000 0000 000000
2018-05-09 11:36:41,0.01,2.57,0.00,26.75,29.85,32.65,13.87,47.23,1022.45,2013.90,2556.93,2428.63,2739.00,600.24,592.23,41.93,0000 0000 0000 0000 000000
2018-05-09 11:41:42,0.05,2.57,0.00,26.76,29.85,32.68,13.81,47.13,1022.47,2013.91,2556.20,2428.06,2738.92,600.61,592.57,41.98,0000 0000 0000 0000 000000
2018-05-09 11:46:44,0.01,2.57,0.00,26.70,29.85,32.67,13.77,47.16,1022.48,2013.92,2556.00,2428.00,2738.25,599.61,591.72,42.03,0000 0000 0000 0000 000000
2018-05-09 11:51:45,0.01,2.57,0.00,26.64,29.84,32.65,13.88,47.27,1022.48,2013.89,2555.67,2427.99,2738.01,600.39,592.59,42.08,0000 0000 0000 0000 000000
2018-05-09 11:56:46,0.02,2.57,0.00,26.62,29.82,32.62,13.79,47.30,1022.48,2013.96,2555.03,2427.83,2737.97,599.85,592.11,42.13,0000 0000 0000 0000 000000
2018-05-09 12:01:47,0.02,2.57,0.00,26.58,29.82,32.60,13.84,47.26,1022.48,2013.98,2554.95,2427.31,2737.81,599.87,592.21,42.18,0000 0000 0000 0000 000000
2018-05-09 12:06:49,0.03,2.57,0.00,26.50,29.80,32.57,13.79,47.21,1022.48,2013.97,2554.28,2427.02,2737.17,600.01,592.55,42.23,0000 0000 0000 0000 000000
2018-05-09 12:11:50,0.00,2.57,0.00,26.47,29.78,32.55,13.84,47.33,1022.48,2013.96,2554.01,2427.00,2737.00,600.19,592.66,42.28,0000 0000 0000 0000 000000
2018-05-09 12:16:51,0.00,2.57,0.00,26.46,29.77,32.54,13.85,47.22,1022.49,2013.98,2553.82,2426.99,2737.00,600.01,592.81,42.33,0000 0000 0000 0000 000000
2018-05-09 12:21:52,0.02,2.58,0.00,26.38,29.75,32.53,13.83,47.22,1022.48,2013.99,2553.11,2426.91,2736.86,600.14,592.83,42.38,0000 0000 0000 0000 000000
2018-05-09 12:26:54,0.04,2.58,0.00,26.31,29.73,32.51,13.87,47.34,1022.48,2013.99,2552.99,2426.38,2736.20,599.98,592.90,42.43,0000 0000 0000 0000 000000
2018-05-09 12:31:55,0.01,2.58,0.00,26.31,29.70,32.61,13.86,47.47,1022.49,2013.99,2552.76,2426.08,2736.02,599.90,592.65,42.48,0000 0000 0000 0000 000000
2018-05-09 12:36:56,0.01,2.58,0.00,26.28,29.67,32.62,13.97,47.42,1022.50,2014.00,2552.10,2426.00,2736.00,600.29,593.17,42.53,0000 0000 0000 0000 000000
2018-05-09 12:41:58,0.00,2.58,0.00,26.21,29.65,32.58,13.86,47.32,1022.51,2014.01,2551.99,2426.00,2735.98,599.67,592.74,42.58,0000 0000 0000 0000 000000
2018-05-09 12:46:59,0.01,2.58,0.00,26.18,29.62,32.59,13.89,47.35,1022.52,2014.05,2551.84,2426.00,2735.85,599.79,592.93,42.64,0000 0000 0000 0000 000000
2018-05-09 12:52:01,0.03,2.58,0.00,26.16,29.59,32.53,13.84,47.24,1022.52,2014.14,2551.17,2425.97,2735.42,599.98,592.95,42.69,0000 0000 0000 0000 000000
2018-05-09 12:57:02,0.06,2.59,0.00,26.09,29.56,32.52,13.85,47.44,1022.50,2014.62,2551.00,2425.96,2735.11,600.02,593.31,42.74,0000 0000 0000 0000 000000